Weather History for Hayward, CA

Change the Weather History Date:

Tuesday, July 2, 2013

  Actual Average Record
Temperature  
Mean Temperature 75 °F 65 °F  
Max Temperature 88 °F 73 °F 88 °F (2001)
Min Temperature 61 °F 57 °F 54 °F (2003)
Degree Days  
Heating Degree Days 0    
Month to date heating degree days 0  
Since 1 June heating degree days 47  
Since 1 July heating degree days 0  
Cooling Degree Days 10    
Month to date cooling degree days 19  
Year to date cooling degree days 119  
Since 1 June cooling degree days 72  
Growing Degree Days 24 (Base 50)    
Moisture  
Dew Point 58 °F    
Average Humidity 62    
Maximum Humidity 84    
Minimum Humidity 40    
Precipitation  
Precipitation 0.00 in - 0.00 in (2014)
Month to date precipitation 0.00  
Year to date precipitation 1.49  
Since 1 July precipitation 0.00  
Sea Level Pressure  
Sea Level Pressure 29.91 in    
Wind  
Wind Speed 8 mph (NW)    
Max Wind Speed 18 mph    
Max Gust Speed 23 mph    
Visibility 10 miles    
Events      
T = Trace of Precipitation, MM = Missing Value Source: NWS Daily Summary

Daily Weather History Graph

Daily Weather History Graph

Search for Another Location

Airport:

Trip Planner

Search our weather history database for the weather conditions in past years. The results will help you decide how hot, cold, wet, or windy it might be!

Date:

Astronomy

Jul. 02, 2013 Rise Set
Actual Time 5:51 AM PDT 8:33 PM PDT
Civil Twilight 5:20 AM PDT 9:04 PM PDT
Nautical Twilight 4:41 AM PDT 9:43 PM PDT
Astronomical Twilight 3:57 AM PDT 10:27 PM PDT
Moon 1:53 AM PDT (7/2) 3:55 PM PDT (7/2)
Length of Visible Light 15h 44m
Length of Day
14h 42m
Waning Crescent, 25% of the Moon is Illuminated
Jul 2
Waning Crescent
Jul 8
New
Jul 15
First Quarter
Jul 22
Full
Jul 29
Last Quarter

Hourly Weather History & Observations

Time (PDT) Temp. Heat Index Dew Point Humidity Pressure Visibility Wind Dir Wind Speed Gust Speed Precip Events Conditions
12:54 AM 64.0 °F - 57.0 °F 78% 29.88 in 10.0 mi NW 4.6 mph - N/A   Clear
1:54 AM 64.9 °F - 57.0 °F 75% 29.86 in 10.0 mi NW 4.6 mph - N/A   Clear
2:54 AM 64.9 °F - 57.0 °F 75% 29.86 in 10.0 mi North 3.5 mph - N/A   Clear
3:54 AM 64.0 °F - 57.0 °F 78% 29.87 in 10.0 mi NW 3.5 mph - N/A   Clear
4:54 AM 63.0 °F - 57.0 °F 81% 29.88 in 10.0 mi NW 4.6 mph - N/A   Clear
5:54 AM 62.1 °F - 55.9 °F 80% 29.88 in 10.0 mi NW 4.6 mph - N/A   Clear
7:54 AM 64.9 °F - 57.0 °F 75% 29.91 in 10.0 mi NW 6.9 mph - N/A   Clear
8:54 AM 66.9 °F - 57.9 °F 73% 29.94 in 10.0 mi NW 8.1 mph - N/A   Clear
9:54 AM 72.0 °F - 57.9 °F 61% 29.93 in 10.0 mi WNW 5.8 mph - N/A   Clear
10:54 AM 73.9 °F - 59.0 °F 59% 29.93 in 10.0 mi West 8.1 mph - N/A   Clear
11:54 AM 77.0 °F - 60.1 °F 56% 29.91 in 10.0 mi Variable 3.5 mph - N/A   Clear
12:54 PM 79.0 °F - 62.1 °F 56% 29.91 in 10.0 mi WNW 8.1 mph - N/A   Clear
1:54 PM 84.9 °F 85.0 °F 61.0 °F 44% 29.90 in 10.0 mi NW 6.9 mph - N/A   Clear
2:54 PM 88.0 °F 87.6 °F 60.1 °F 39% 29.90 in 10.0 mi WNW 10.4 mph - N/A   Clear
3:54 PM 84.9 °F 84.4 °F 59.0 °F 41% 29.90 in 10.0 mi NNW 11.5 mph - N/A   Clear
4:54 PM 77.0 °F - 57.9 °F 52% 29.92 in 10.0 mi NW 18.4 mph 21.9 mph N/A   Clear
5:54 PM 71.1 °F - 55.9 °F 59% 29.91 in 10.0 mi NW 15.0 mph - N/A   Clear
6:54 PM 66.9 °F - 55.9 °F 68% 29.91 in 10.0 mi NW 16.1 mph - N/A   Clear
7:54 PM 64.9 °F - 55.9 °F 73% 29.93 in 10.0 mi NW 12.7 mph - N/A   Clear
8:54 PM 63.0 °F - 55.9 °F 78% 29.94 in 10.0 mi NNW 8.1 mph - N/A   Clear
9:54 PM 62.1 °F - 55.9 °F 80% 29.94 in 10.0 mi NNW 5.8 mph - N/A   Clear
10:54 PM 61.0 °F - 55.9 °F 83% 29.95 in 10.0 mi NW 8.1 mph - N/A   Clear
11:52 PM 60.8 °F - 57.2 °F 88% 29.93 in 10.0 mi North 9.2 mph - N/A   Scattered Clouds
11:54 PM 61.0 °F - 57.0 °F 87% 29.96 in 10.0 mi NNW 10.4 mph - N/A   Scattered Clouds